Date String (YYYY-MM-DD hh:mm:ss) UTC,Instrument flags,absolute air pressure of the measurement (hPa),sample flow rate (lpm),inlet stack bypass flow (lpm),air temperature of the measurement (°C),ambient temperature measured by the external sensor (°C),aerosol sample conditioner tube jacket temperature (°C),OPC LED temperature (°C),internal box temperature (°C),relative humidity of the measurement (%),span deviation,mass concentration of particles derived from Lorenz-Mie calculation of OPC scattering (μg/m³),mass concentration of particles derived from Lorenz-Mie calculation of OPC scattering (μg/m³),mass concentration of particles derived from Lorenz-Mie calculation of OPC scattering (μg/m³)
DateTimeUTC,F1_M11,P_M11,Q1_M11,Q2_M11,T1_M11,T2_M11,T3_M11,T4_M11,T5_M11,U1_M11,ZSPAN_M11,X2_M11,X0_M11,X1_M11
2024-04-06 21:00:00,SystemResetWarning,0809.1,5.00,000.00,018.4,017.4,000.0,027.0,020.0,009.8,0000.0,0003.79,0022.04,0000.75
2024-04-06 21:01:00,SystemResetWarning,0808.8,4.99,000.00,018.4,017.4,000.0,027.0,020.0,010.1,0000.0,0003.36,0018.13,0000.66
2024-04-06 21:02:00,SystemResetWarning,0808.9,5.01,000.00,018.4,017.4,000.0,027.0,020.0,009.9,0000.0,0003.21,0016.14,0000.62
2024-04-06 21:03:00,SystemResetWarning,0808.7,5.01,000.00,018.4,017.3,000.0,027.0,020.0,010.0,0000.0,0003.53,0019.32,0000.66
2024-04-06 21:04:00,SystemResetWarning,0808.9,4.98,000.00,018.4,017.3,000.0,027.0,020.0,010.3,0000.0,0003.87,0022.06,0000.74
2024-04-06 21:05:00,SystemResetWarning,0809.0,5.00,000.00,018.4,017.2,000.0,027.0,020.0,010.4,0000.0,0004.62,0028.26,0000.87
2024-04-06 21:06:00,SystemResetWarning,0809.3,5.02,000.00,018.4,017.2,000.0,027.0,020.0,010.4,0000.0,0004.90,0033.12,0000.91
2024-04-06 21:07:00,SystemResetWarning,0808.8,5.00,000.00,018.4,017.2,000.0,027.0,020.0,010.4,0000.0,0004.88,0033.60,0000.91
2024-04-06 21:08:00,SystemResetWarning,0809.0,4.98,000.00,018.4,017.2,000.0,027.0,020.0,010.2,0000.0,0004.87,0034.46,0000.90
2024-04-06 21:09:00,SystemResetWarning,0808.7,5.00,000.00,018.3,017.2,000.0,027.0,020.0,010.3,0000.0,0004.99,0035.17,0000.92
2024-04-06 21:10:00,SystemResetWarning,0808.5,5.02,000.00,018.3,017.1,000.0,027.0,020.0,009.9,0000.0,0005.27,0037.20,0000.98
2024-04-06 21:11:00,SystemResetWarning,0808.9,5.00,000.00,018.3,017.1,000.0,027.0,020.0,009.9,0000.0,0006.35,0050.32,0001.18
2024-04-06 21:12:00,SystemResetWarning,0809.1,4.99,000.00,018.3,017.1,000.0,027.0,020.0,010.1,0000.0,0007.84,0063.61,0001.43
2024-04-06 21:13:00,SystemResetWarning,0809.1,5.02,000.00,018.3,017.1,000.0,027.0,020.0,010.1,0000.0,0007.99,0063.24,0001.45
2024-04-06 21:14:00,SystemResetWarning,0809.0,4.99,000.00,018.3,017.1,000.0,027.0,020.0,010.1,0000.0,0007.74,0059.85,0001.42
2024-04-06 21:15:00,SystemResetWarning,0809.0,5.00,000.00,018.3,017.2,000.0,027.0,020.1,009.9,0000.0,0007.53,0059.10,0001.37
2024-04-06 21:16:00,SystemResetWarning,0809.1,5.01,000.00,018.5,018.2,000.0,027.0,020.5,010.0,0000.0,0007.06,0057.04,0001.30
2024-04-06 21:17:00,SystemResetWarning,0809.2,5.00,000.00,018.8,019.0,000.0,027.1,021.0,009.8,0000.0,0006.63,0051.23,0001.22
2024-04-06 21:18:00,SystemResetWarning,0809.2,4.99,000.00,018.8,018.9,000.0,027.0,020.9,009.6,0000.0,0006.66,0049.72,0001.24
2024-04-06 21:19:00,SystemResetWarning,0809.0,4.99,000.00,018.8,018.7,000.0,027.0,020.7,009.6,0000.0,0006.86,0052.01,0001.29
2024-04-06 21:20:00,SystemResetWarning,0808.5,5.01,000.00,018.8,018.6,000.0,027.0,020.5,009.7,0000.0,0006.85,0053.03,0001.28
2024-04-06 21:21:00,SystemResetWarning,0808.8,5.01,000.00,018.7,018.3,000.0,027.0,020.3,009.7,0000.0,0007.69,0062.04,0001.43
2024-04-06 21:22:00,SystemResetWarning,0808.9,4.99,000.00,018.7,018.1,000.0,027.0,020.1,009.9,0000.0,0007.83,0060.38,0001.46
2024-04-06 21:23:00,SystemResetWarning,0809.0,4.99,000.00,018.6,017.9,000.0,027.0,020.0,009.9,0000.0,0006.93,0050.25,0001.29
2024-04-06 21:24:00,SystemResetWarning,0809.0,4.99,000.00,018.5,017.8,000.0,027.0,020.0,009.9,0000.0,0007.48,0055.71,0001.40
2024-04-06 21:25:00,SystemResetWarning,0808.6,5.01,000.00,018.5,017.7,000.0,027.0,020.0,010.0,0000.0,0007.82,0059.24,0001.46
2024-04-06 21:26:00,SystemResetWarning,0809.2,5.01,000.00,018.5,017.6,000.0,027.0,020.0,010.2,0000.0,0007.95,0060.20,0001.50
2024-04-06 21:27:00,SystemResetWarning,0809.1,4.98,000.00,018.5,017.5,000.0,027.0,020.0,010.5,0000.0,0008.12,0062.55,0001.53
2024-04-06 21:28:00,SystemResetWarning,0809.3,5.01,000.00,018.4,017.4,000.0,027.0,020.0,010.3,0000.0,0008.38,0063.22,0001.57
2024-04-06 21:29:00,SystemResetWarning,0809.2,5.00,000.00,018.4,017.4,000.0,027.0,020.0,010.6,0000.0,0008.86,0065.04,0001.66
2024-04-06 21:30:00,SystemResetWarning,0808.7,4.99,000.00,018.4,017.3,000.0,027.0,020.0,010.5,0000.0,0008.80,0062.43,0001.61
2024-04-06 21:31:00,SystemResetWarning,0809.1,5.01,000.00,018.4,017.3,000.0,027.0,020.0,010.5,0000.0,0009.21,0065.15,0001.67
2024-04-06 21:32:00,SystemResetWarning,0809.2,4.99,000.00,018.4,017.2,000.0,027.0,020.0,010.9,0000.0,0009.78,0067.50,0001.82
2024-04-06 21:33:00,SystemResetWarning,0808.9,5.00,000.00,018.4,017.2,000.0,027.0,020.0,011.0,0000.0,0009.25,0061.82,0001.71
2024-04-06 21:34:00,SystemResetWarning,0808.9,5.00,000.00,018.4,017.1,000.0,027.0,020.0,010.9,0000.0,0008.73,0057.69,0001.60
2024-04-06 21:35:00,SystemResetWarning,0808.5,5.00,000.00,018.4,017.1,000.0,027.0,020.0,010.9,0000.0,0008.61,0057.67,0001.59
2024-04-06 21:36:00,SystemResetWarning,0808.8,5.01,000.00,018.4,017.1,000.0,027.0,020.0,011.0,0000.0,0009.96,0072.55,0001.90
2024-04-06 21:37:00,SystemResetWarning,0809.2,5.01,000.00,018.4,017.3,000.0,027.0,020.1,011.4,0000.0,0012.57,0099.28,0002.44
2024-04-06 21:38:00,SystemResetWarning,0809.1,4.99,000.00,018.6,018.3,000.0,027.1,020.6,011.4,0000.0,0013.15,0104.79,0002.57
2024-04-06 21:39:00,SystemResetWarning,0809.1,5.01,000.00,018.8,019.3,000.0,027.1,021.2,011.1,0000.0,0013.02,0105.71,0002.54
2024-04-06 21:40:00,SystemResetWarning,0809.4,4.98,000.00,019.0,019.4,000.0,027.1,021.2,011.0,0000.0,0012.58,0104.60,0002.46
2024-04-06 21:41:00,SystemResetWarning,0809.1,5.00,000.00,019.0,019.2,000.0,027.1,021.0,011.2,0000.0,0012.51,0103.94,0002.46
2024-04-06 21:42:00,SystemResetWarning,0809.0,5.00,000.00,019.0,018.9,000.0,027.1,020.7,011.1,0000.0,0012.31,0102.16,0002.47
2024-04-06 21:43:00,SystemResetWarning,0809.2,4.99,000.00,018.9,018.7,000.0,027.1,020.5,011.3,0000.0,0011.07,0091.25,0002.22
2024-04-06 21:44:00,SystemResetWarning,0809.4,4.99,000.00,018.8,018.4,000.0,027.1,020.3,011.4,0000.0,0010.19,0084.19,0002.03
2024-04-06 21:45:00,SystemResetWarning,0809.2,5.00,000.00,018.8,018.2,000.0,027.1,020.2,011.4,0000.0,0009.89,0083.50,0001.99
2024-04-06 21:46:00,SystemResetWarning,0809.1,5.01,000.00,018.7,018.0,000.0,027.1,020.1,011.1,0000.0,0009.34,0079.62,0001.89
2024-04-06 21:47:00,SystemResetWarning,0809.0,5.00,000.00,018.7,017.9,000.0,027.0,020.1,010.7,0000.0,0007.74,0062.19,0001.55
2024-04-06 21:48:00,SystemResetWarning,0809.2,5.00,000.00,018.6,017.7,000.0,027.0,020.0,010.6,0000.0,0005.06,0034.42,0000.99
2024-04-06 21:49:00,SystemResetWarning,0809.3,5.00,000.00,018.6,017.6,000.0,027.1,020.0,010.8,0000.0,0004.14,0022.32,0000.77
2024-04-06 21:50:00,SystemResetWarning,0809.2,4.99,000.00,018.5,017.5,000.0,027.1,020.0,010.9,0000.0,0004.28,0021.83,0000.78
2024-04-06 21:51:00,SystemResetWarning,0809.3,5.00,000.00,018.5,017.4,000.0,027.0,020.0,010.8,0000.0,0004.29,0021.53,0000.77
2024-04-06 21:52:00,SystemResetWarning,0809.5,4.99,000.00,018.5,017.4,000.0,027.1,020.0,010.8,0000.0,0004.10,0021.35,0000.73
2024-04-06 21:53:00,SystemResetWarning,0809.2,5.01,000.00,018.5,017.3,000.0,027.1,020.0,010.8,0000.0,0004.06,0021.54,0000.71
2024-04-06 21:54:00,SystemResetWarning,0809.4,5.01,000.00,018.4,017.3,000.0,027.1,020.0,010.7,0000.0,0004.26,0023.07,0000.74
2024-04-06 21:55:00,SystemResetWarning,0809.4,4.99,000.00,018.4,017.2,000.0,027.1,020.0,010.7,0000.0,0004.51,0025.37,0000.79
2024-04-06 21:56:00,SystemResetWarning,0809.1,5.01,000.00,018.4,017.2,000.0,027.0,020.0,010.7,0000.0,0004.60,0024.80,0000.80
2024-04-06 21:57:00,SystemResetWarning,0809.2,5.01,000.00,018.4,017.2,000.0,027.0,020.0,010.7,0000.0,0004.65,0025.18,0000.81
2024-04-06 21:58:00,SystemResetWarning,0809.4,4.99,000.00,018.4,017.2,000.0,027.0,020.0,010.6,0000.0,0004.96,0028.66,0000.86
2024-04-06 21:59:00,SystemResetWarning,0809.3,4.99,000.00,018.4,017.1,000.0,027.0,020.0,010.6,0000.0,0004.95,0029.77,0000.85
